Regional Weather Roundup
Issued by NWS

Home | Current Version | Previous Version | Text Only | Print | Product List | Glossary Off
Versions: 1 2 3 4 5 6 7 8 9 10 11 12 13 14 15 16 17 18 19 20 21 22 23 24 25 26 27 28 29 30 31 32 33 34 35 36 37 38 39 40 41 42 43 44 45 46 47 48 49 50

000
ASUS43 KDTX 301001
RWRMI
MICHIGAN HOURLY REGIONAL WEATHER ROUNDUP
NATIONAL WEATHER SERVICE DETROIT/PONTIAC MI
600 AM EDT SAT APR 30 2016

NOTE: "FAIR" INDICATES FEW OR NO CLOUDS BELOW 12,000 FEET WITH NO
SIGNIFICANT WEATHER AND/OR OBSTRUCTION TO VISIBILITY.

MIZ047>049-052>055-059>063-066>070-074>076-081>083-301100-
SOUTHEAST LOWER MICHIGAN

CITY           SKY/WX    TMP DP  RH WIND       PRES   REMARKS
ADRIAN         CLEAR     42  40  92 E5        30.14R
ALMA           CLEAR     34  33  96 NE5       30.15S WCI  30
ANN ARBOR      CLEAR     41  32  70 E3        30.13R
BAD AXE        CLOUDY    33  31  92 NE5       30.18F WCI  28
CARO           CLEAR     36  28  73 NE5       30.15F WCI  32
DETROIT CITY   CLEAR     40  30  67 N3        30.14S
DETROIT        PTCLDY    41  32  70 N5        30.14S
FLINT          CLEAR     39  32  76 NE3       30.15F
GROSSE ILE     CLEAR     43  36  75 NE8       30.12S
HILLSDALE      PTCLDY    44  40  89 E5        30.12R
HOWELL         CLEAR     38  34  87 CALM      30.13S

CITY           SKY/WX    TMP DP  RH WIND       PRES   REMARKS
JACKSON        PTCLDY    43  37  79 E6        30.14R
LAMBERTVILLE   CLEAR     40  37  89 CALM      30.14R FOG
LANSING        CLEAR     37  33  85 E3        30.15R
LAPEER         CLOUDY    36  34  93 CALM      30.14F
MASON          CLEAR     40  33  76 SE3       30.14R
MONROE         CLEAR     41  39  93 N3        30.12S
MT. CLEMENS    CLEAR     39  31  73 N5        30.13S
PONTIAC        PTCLDY    40  28  62 NE3       30.12F
PORT HOPE        N/A     39  34  82 CALM      30.18S
PORT HURON     CLEAR     39  32  75 CALM      30.15F
TRI CITIES     CLEAR     36  30  79 NE7       30.16F WCI  30
MIDLAND        FAIR      35  34  96 CALM      30.16F
TROY           CLEAR     43  29  58 NE5       30.15S
SAGINAW HB     CLEAR     34  30  86 CALM      30.16S
$$
MIZ043>046-050>051-056>058-064>065-071>073-077>080-301100-
SOUTHWEST LOWER MICHIGAN

CITY           SKY/WX    TMP DP  RH WIND       PRES   REMARKS
BATTLE CREEK   CLOUDY    45  39  79 E5        30.13R
BENTON HARBOR  CLOUDY    46  41  82 E6        30.09S
BIG RAPIDS     CLEAR     33  31  92 CALM      30.14S
COLDWATER      CLOUDY    46  38  74 E6        30.12R
FREMONT        FAIR      39  38  94 E3        30.14R
HOLLAND        CLOUDY    41  37  86 E6        30.12R
GRAND RAPIDS   CLOUDY    39  36  89 E6        30.14R WCI  35
IONIA          FAIR      37  35  92 E5        30.14R WCI  33
KALAMAZOO      CLOUDY    47  38  71 E5        30.12R
LUDINGTON      CLEAR     32  32 100 CALM      30.14R
MARSHALL       PTCLDY    42  38  83 CALM      30.12R
MOUNT PLEASANT CLEAR     34  32  92 CALM      30.16S
MUSKEGON       PTCLDY    40  35  83 E7        30.14R
$$
MIZ016>042-301100-
NORTHERN LOWER MICHIGAN

CITY           SKY/WX    TMP DP  RH WIND       PRES   REMARKS
ALPENA         PTCLDY    28  26  92 CALM      30.20F
BEAVER ISLAND  CLEAR     30  29  96 CALM      30.18F
BELLAIRE       CLEAR     32  31  96 CALM      30.17F
CADILLAC       CLEAR     29  27  92 CALM      30.13F
CHARLEVOIX     CLEAR     36  30  79 E3        30.19F
FRANKFORT      CLEAR     34  32  94 CALM      30.14S
GAYLORD        CLEAR     35  29  78 CALM      30.16F
HARBOR SPRINGS CLEAR     32  30  92 E3        30.18F
HOUGHTON LAKE  CLEAR     31  29  92 NE5       30.16F WCI  26
MANISTEE       CLEAR     34  30  86 E6        30.14S WCI  29
OSCODA         CLEAR     28  25  89 NW3       30.19F
PELLSTON       CLEAR     27  25  92 CALM      30.19F
ROGERS CITY    CLEAR     28  25  91 CALM      30.22S
TRAVERSE CITY  CLEAR     34  30  85 CALM      30.15F
$$
MIZ007>008-015-301100-
EASTERN UPPER MICHIGAN

CITY           SKY/WX    TMP DP  RH WIND       PRES   REMARKS
KINROSS          N/A     36  30  80 CALM      30.20S
MACKINAC ISLAN PTCLDY    35  29  78 E5        30.20F WCI  31
NEWBERRY       MOCLDY    31  30  96 CALM      30.19F
S. S. MARIE    CLOUDY    36  32  85 CALM      30.20S
MUNISING         N/A     37  33  85 N3        30.19F
$$
MIZ004>006-011>014-085-301100-
CENTRAL UPPER MICHIGAN

CITY           SKY/WX    TMP DP  RH WIND       PRES   REMARKS
MANISTIQUE     CLEAR     32  30  94 N8        30.18F WCI  24
ESCANABA       PTCLDY    39  30  70 NE3       30.17F
MENOMINEE      CLEAR     37  28  70 NE7       30.16R WCI  32
SAWYER-GWINN   PTCLDY    34  28  80 N7        30.20S WCI  28
$$
MIZ001>003-009>011-084-301100-
WESTERN UPPER MICHIGAN

CITY           SKY/WX    TMP DP  RH WIND       PRES   REMARKS
IRON MOUNTAIN  CLEAR     34  27  75 NW3       30.16F
HOUGHTON       CLOUDY    39  30  70 NE8       30.22F WCI  33
COPPER HARBOR    N/A     39  35  86 NE5       30.25R
IRONWOOD         N/A     34  32  93 E5        30.18F WCI  30
$$

ABBREVIATIONS USED IN REMARKS
   TC - TEMPERATURE IN CELSIUS
  WCI - WIND CHILL INDEX
   HX - HEAT INDEX
  VSB - VISIBILITY




USA.gov is the U.S. government's official web portal to all federal, state and local government web resources and services.